Independence, KS

3:51 AM CDT on March 23, 2017 (GMT -0500)
Independence Municipal

Weather History for KIDP - November, 2012

Change the Weather History Date:

Thursday, November 22, 2012

  Actual Average (KCFV) Record (KCFV)
Temperature  
Mean Temperature 62 °F -  
Max Temperature 73 °F 54 °F 77 °F (2010)
Min Temperature 50 °F 33 °F 23 °F (2007)
Degree Days  
Heating Degree Days 3    
Growing Degree Days 12 (Base 50)    
Moisture  
Dew Point 45 °F    
Average Humidity 54    
Maximum Humidity 67    
Minimum Humidity 42    
Precipitation  
Precipitation 0.00 in - - ()
Sea Level Pressure  
Sea Level Pressure 30.00 in    
Wind  
Wind Speed 17 mph (SSW)    
Max Wind Speed 26 mph    
Max Gust Speed 36 mph    
Visibility 10 miles    
Events      
Averages and records for this station are not official NWS values.
T = Trace of Precipitation, MM = Missing Value Source: NWS Daily Summary

Daily Weather History Graph

Daily Weather History Graph

Search for Another Location

Airport or City:

Trip Planner

Search our weather history database for the weather conditions in past years. The results will help you decide how hot, cold, wet, or windy it might be!

Date:

Astronomy

Nov. 22, 2012 Rise Set
Actual Time 7:09 AM CST 5:08 PM CST
Civil Twilight 6:41 AM CST 5:36 PM CST
Nautical Twilight 6:09 AM CST 6:08 PM CST
Astronomical Twilight 5:38 AM CST 6:39 PM CST
Moon 1:48 PM CST (11/22) 1:37 AM CST (11/22)
Length of Visible Light 10h 55m
Length of Day
9h 58m
Waxing Gibbous, 71% of the Moon is Illuminated
Nov 22
Waxing Gibbous
Nov 28
Full
Dec 6
Last Quarter
Dec 13
New
Dec 19
First Quarter

Hourly Weather History & Observations

Time (CST) Temp. Dew Point Humidity Pressure Visibility Wind Dir Wind Speed Gust Speed Precip Events Conditions
12:15 AM 59.0 °F 39.2 °F 48% 30.01 in 10.0 mi South 17.3 mph 20.7 mph N/A   Clear
12:35 AM 59.0 °F 39.2 °F 48% 30.01 in 10.0 mi South 13.8 mph 20.7 mph N/A   Clear
12:55 AM 59.0 °F 39.2 °F 48% 30.00 in 10.0 mi South 13.8 mph 19.6 mph N/A   Clear
1:15 AM 59.0 °F 41.0 °F 51% 30.00 in 10.0 mi South 15.0 mph - N/A   Clear
1:35 AM 59.0 °F 41.0 °F 51% 29.99 in 10.0 mi South 16.1 mph - N/A   Clear
1:55 AM 59.0 °F 41.0 °F 51% 29.99 in 10.0 mi South 15.0 mph 21.9 mph N/A   Clear
2:15 AM 59.0 °F 41.0 °F 51% 29.99 in 10.0 mi South 16.1 mph 20.7 mph N/A   Clear
2:35 AM 59.0 °F 41.0 °F 51% 29.98 in 10.0 mi South 17.3 mph - N/A   Clear
2:55 AM 59.0 °F 41.0 °F 51% 29.98 in 10.0 mi South 16.1 mph 23.0 mph N/A   Clear
3:15 AM 59.0 °F 41.0 °F 51% 29.98 in 10.0 mi South 16.1 mph - N/A   Clear
3:35 AM 57.2 °F 42.8 °F 59% 29.98 in 10.0 mi South 15.0 mph 20.7 mph N/A   Clear
3:55 AM 57.2 °F 42.8 °F 59% 29.98 in 10.0 mi South 11.5 mph - N/A   Clear
4:15 AM 57.2 °F 42.8 °F 59% 29.97 in 10.0 mi South 16.1 mph - N/A   Clear
4:35 AM 55.4 °F 42.8 °F 63% 29.97 in 10.0 mi South 15.0 mph 20.7 mph N/A   Clear
4:55 AM 55.4 °F 42.8 °F 63% 29.97 in 10.0 mi South 16.1 mph 20.7 mph N/A   Clear
5:15 AM 55.4 °F 42.8 °F 63% 29.96 in 10.0 mi South 18.4 mph - N/A   Clear
5:35 AM 55.4 °F 42.8 °F 63% 29.96 in 10.0 mi South 18.4 mph 24.2 mph N/A   Clear
5:55 AM 55.4 °F 42.8 °F 63% 29.96 in 10.0 mi South 18.4 mph - N/A   Clear
6:15 AM 55.4 °F 42.8 °F 63% 29.96 in 10.0 mi South 18.4 mph - N/A   Clear
6:35 AM 55.4 °F 42.8 °F 63% 29.96 in 10.0 mi South 18.4 mph - N/A   Clear
6:55 AM 55.4 °F 42.8 °F 63% 29.96 in 10.0 mi South 20.7 mph - N/A   Clear
7:15 AM 55.4 °F 42.8 °F 63% 29.95 in 10.0 mi South 19.6 mph 26.5 mph N/A   Clear
7:35 AM 55.4 °F 42.8 °F 63% 29.95 in 10.0 mi South 19.6 mph 27.6 mph N/A   Clear
7:55 AM 55.4 °F 44.6 °F 67% 29.95 in 10.0 mi South 21.9 mph 28.8 mph N/A   Clear
8:15 AM 55.4 °F 44.6 °F 67% 29.95 in 10.0 mi South 21.9 mph 29.9 mph N/A   Clear
8:35 AM 57.2 °F 44.6 °F 63% 29.96 in 10.0 mi South 21.9 mph 28.8 mph N/A   Clear
8:55 AM 57.2 °F 44.6 °F 63% 29.96 in 10.0 mi South 20.7 mph 26.5 mph N/A   Clear
9:15 AM 59.0 °F 44.6 °F 59% 29.95 in 10.0 mi South 24.2 mph 31.1 mph N/A   Clear
9:35 AM 59.0 °F 44.6 °F 59% 29.95 in 10.0 mi South 24.2 mph 28.8 mph N/A   Clear
9:55 AM 59.0 °F 44.6 °F 59% 29.95 in 10.0 mi South 23.0 mph 29.9 mph N/A   Clear
10:15 AM 60.8 °F 46.4 °F 59% 29.95 in 10.0 mi South 19.6 mph 25.3 mph N/A   Clear
10:35 AM 60.8 °F 46.4 °F 59% 29.95 in 10.0 mi South 20.7 mph 28.8 mph N/A   Clear
10:55 AM 62.6 °F 46.4 °F 55% 29.95 in 10.0 mi South 20.7 mph 28.8 mph N/A   Clear
11:15 AM 62.6 °F 46.4 °F 55% 29.94 in 10.0 mi South 18.4 mph 26.5 mph N/A   Clear
11:35 AM 64.4 °F 46.4 °F 52% 29.93 in 10.0 mi South 20.7 mph 25.3 mph N/A   Clear
11:55 AM 68.0 °F 48.2 °F 49% 29.92 in 10.0 mi South 17.3 mph 23.0 mph N/A   Clear
12:15 PM 68.0 °F 48.2 °F 49% 29.92 in 10.0 mi South 20.7 mph 26.5 mph N/A   Clear
12:35 PM 69.8 °F 48.2 °F 46% 29.91 in 10.0 mi South 16.1 mph 23.0 mph N/A   Clear
12:55 PM 71.6 °F 48.2 °F 43% 29.90 in 10.0 mi South 19.6 mph 25.3 mph N/A   Clear
1:15 PM 71.6 °F 50.0 °F 46% 29.89 in 10.0 mi South 20.7 mph 26.5 mph N/A   Clear
1:35 PM 71.6 °F 48.2 °F 43% 29.89 in 10.0 mi South 20.7 mph 26.5 mph N/A   Clear
1:55 PM 71.6 °F 50.0 °F 46% 29.89 in 10.0 mi SSW 17.3 mph - N/A   Clear
2:15 PM 73.4 °F 50.0 °F 44% 29.88 in 10.0 mi South 18.4 mph 25.3 mph N/A   Clear
2:35 PM 73.4 °F 50.0 °F 44% 29.90 in 10.0 mi SSW 15.0 mph 23.0 mph N/A   Clear
2:55 PM 73.4 °F 50.0 °F 44% 29.90 in 10.0 mi SW 16.1 mph 23.0 mph N/A   Clear
3:15 PM 71.6 °F 50.0 °F 46% 29.90 in 10.0 mi SSW 15.0 mph - N/A   Clear
3:35 PM 71.6 °F 50.0 °F 46% 29.91 in 10.0 mi SSW 9.2 mph 18.4 mph N/A   Clear
3:55 PM 71.6 °F 51.8 °F 50% 29.92 in 10.0 mi SSW 6.9 mph - N/A   Clear
4:15 PM 71.6 °F 51.8 °F 50% 29.92 in 10.0 mi SSW 5.8 mph - N/A   Scattered Clouds
4:35 PM 69.8 °F 51.8 °F 53% 29.93 in 10.0 mi South 3.5 mph - N/A   Mostly Cloudy
4:55 PM 69.8 °F 51.8 °F 53% 29.95 in 10.0 mi SSE 3.5 mph - N/A   Overcast
5:15 PM 68.0 °F 51.8 °F 56% 29.95 in 10.0 mi South 4.6 mph - N/A   Mostly Cloudy
5:35 PM 68.0 °F 51.8 °F 56% 29.97 in 10.0 mi SW 3.5 mph - N/A   Mostly Cloudy
5:55 PM 68.0 °F 51.8 °F 56% 29.98 in 10.0 mi WSW 5.8 mph - N/A   Mostly Cloudy
6:15 PM 66.2 °F 51.8 °F 60% 30.00 in 10.0 mi West 5.8 mph - N/A   Mostly Cloudy
6:35 PM 64.4 °F 51.8 °F 64% 30.01 in 10.0 mi NW 9.2 mph - N/A   Mostly Cloudy
6:55 PM 68.0 °F 51.8 °F 56% 30.02 in 10.0 mi NW 8.1 mph - N/A   Overcast
7:15 PM 68.0 °F 50.0 °F 52% 30.05 in 10.0 mi North 23.0 mph 32.2 mph N/A   Overcast
7:35 PM 64.4 °F 41.0 °F 42% 30.07 in 10.0 mi North 21.9 mph 31.1 mph N/A   Overcast
7:55 PM 62.6 °F 39.2 °F 42% 30.09 in 10.0 mi North 21.9 mph 27.6 mph N/A   Overcast
8:15 PM 62.6 °F 39.2 °F 42% 30.11 in 10.0 mi North 24.2 mph 35.7 mph N/A   Overcast
8:35 PM 60.8 °F 39.2 °F 45% 30.13 in 10.0 mi North 19.6 mph 29.9 mph N/A   Overcast
8:55 PM 59.0 °F 39.2 °F 48% 30.15 in 10.0 mi North 18.4 mph 25.3 mph N/A   Overcast
9:15 PM 59.0 °F 39.2 °F 48% 30.17 in 10.0 mi North 24.2 mph 29.9 mph N/A   Overcast
9:35 PM 57.2 °F 39.2 °F 51% 30.19 in 10.0 mi North 18.4 mph 32.2 mph N/A   Overcast
9:55 PM 55.4 °F 39.2 °F 54% 30.20 in 10.0 mi North 26.5 mph 32.2 mph N/A   Overcast
10:15 PM 55.4 °F 41.0 °F 58% 30.22 in 10.0 mi North 21.9 mph 26.5 mph N/A   Overcast
10:35 PM 55.4 °F 39.2 °F 54% 30.23 in 10.0 mi North 17.3 mph 28.8 mph N/A   Overcast
10:55 PM 53.6 °F 39.2 °F 58% 30.24 in 10.0 mi North 13.8 mph 20.7 mph N/A   Overcast
11:15 PM 53.6 °F 39.2 °F 58% 30.25 in 10.0 mi NNE 18.4 mph 24.2 mph N/A   Mostly Cloudy
11:35 PM 51.8 °F 39.2 °F 62% 30.26 in 10.0 mi North 13.8 mph - N/A   Scattered Clouds
11:55 PM 50.0 °F 39.2 °F 66% 30.27 in 10.0 mi North 13.8 mph - N/A   Clear